[[{"header":{"parameterUnit":"m.s-1","parameterCategory":1,"la1":30.2991,"la2":30.254,"lo1":-89.0895,"lo2":-89.0444,"dy":0.0017,"dx":0.0017,"nx":28,"ny":28,"refTime":"2025-07-11T21:00:00:Z","depth":0,"parameterNumber":2,"parameterNumberName":"U-component_of_WINDS"},"data":[0,0,0,0,0,0,0,0,0,0,0,0,0,0,0,0,0,0,0,0,0,0,0,0,0,0,0,0,0,0,0,0,0,0,0,0,0,0,0,0,0,0,0,0,0,0,0,0,0,0,0,0,0,0,0,0,0,0,3.5338,3.5339,0,3.5378,3.5379,3.5379,3.5288,3.5285,3.5282,3.5279,3.5322,3.5326,3.533,0,0,0,0,0,0,0,0,0,0,0,0,0,3.5183,3.5186,3.5338,3.5339,3.5339,3.5378,3.5379,3.5379,3.5288,3.5285,3.5281,3.5278,3.5321,3.5326,3.533,0,0,0,0,0,0,0,0,0,0,0,0,0,3.524,3.5188,3.5338,3.5298,3.5295,3.5378,3.5379,3.5379,3.5289,3.5285,3.528,3.5276,3.532,3.5325,3.5331,3.5455,0,0,3.5349,3.5351,0,0,0,0,0,0,0,0,3.5237,3.5245,3.5304,3.5301,3.5298,3.5323,3.534,3.5405,3.529,3.5291,3.5279,3.5274,3.5326,3.5331,3.5349,3.5457,3.5459,3.5349,3.5353,3.5355,3.5357,0,0,0,0,0,0,0,3.5233,3.5243,3.5354,3.5305,3.5301,3.5279,3.5282,3.5352,3.5333,3.5291,3.5284,3.529,3.5324,3.5343,3.5349,3.5459,3.5349,3.5354,3.5358,3.536,3.5666,3.567,0,0,0,0,0,0,3.5234,3.5241,3.5353,3.5355,3.5256,3.5285,3.5288,3.532,3.5332,3.533,3.5294,3.5286,3.5335,3.5342,3.535,3.5492,3.5355,3.5361,3.5364,3.5661,3.5667,3.5672,0,0,0,0,0,0,3.5231,3.5245,3.5351,3.5296,3.5308,3.5292,3.5328,3.5323,3.5342,3.5334,3.5331,3.5317,3.5332,3.5342,3.5428,3.5492,3.5363,3.5369,3.5656,3.5663,3.5669,3.5778,0,0,0,0,0,0,3.5227,3.5244,3.5291,3.5298,3.5311,3.5429,3.5332,3.5327,3.5352,3.5342,3.5355,3.5353,3.5329,3.542,3.5434,3.5498,3.5373,3.565,3.5659,3.5667,3.5769,3.5788,3.5805,0,0,0,0,0,3.5221,3.5322,3.5294,3.5308,3.537,3.5433,3.544,3.5411,3.5357,3.5404,3.5398,3.5352,3.5483,3.5429,3.5444,3.5511,3.5646,3.5656,3.5666,3.5761,3.5784,3.5804,0,0,0,0,0,0,3.5325,3.5322,3.5291,3.5397,3.5416,3.5417,3.5475,3.5437,3.5472,3.5461,3.5424,3.5428,3.552,3.5525,3.5465,3.5629,3.5555,3.5569,3.5622,3.5644,3.5662,3.5657,3.5378,0,0,0,0,0,3.536,3.5411,3.5406,3.55,3.5511,3.5492,3.5518,3.5493,3.5511,3.5519,3.552,3.554,3.5585,3.5615,3.5657,3.577,3.577,3.5823,3.5841,3.5856,3.5867,3.5923,3.5945,3.5706,3.5706,3.5706,0,0,3.5434,3.5438,3.5473,3.5521,3.5532,3.5585,3.5499,3.556,3.5598,3.5529,3.5608,3.561,3.5629,3.5728,3.5772,3.5735,3.5933,3.5869,3.5881,3.5884,3.5936,3.5959,3.5979,3.5713,3.5712,3.5711,0,0,3.5592,3.5603,3.5679,3.5692,3.5709,3.5696,3.5714,3.5721,3.5719,3.5798,3.5746,3.5791,3.5871,3.5885,3.5903,3.6065,3.6022,3.608,3.6172,3.6227,3.6245,3.6262,3.6315,3.6336,3.6092,3.6092,3.6092,0,3.5681,3.5758,3.5724,3.5787,3.5808,3.5746,3.5822,3.5837,3.5868,3.5883,3.5842,3.5937,3.5946,3.6045,3.6084,3.6102,3.612,3.6077,3.6245,3.6262,3.6276,3.6327,3.6348,3.6099,3.6098,3.6097,3.6097,0,3.5864,3.5918,3.5978,3.6007,3.6035,3.6105,3.608,3.6113,3.6086,3.6076,3.6156,3.6164,3.6204,3.6227,3.6202,3.6322,3.6297,3.6252,3.6176,3.6306,3.6353,3.6372,3.6108,3.6106,3.6104,3.6102,0,0,3.609,3.6096,3.6118,3.6128,3.6142,3.6183,3.625,3.6287,3.6314,3.6337,3.639,3.6457,3.6413,3.6433,3.6409,3.6458,3.658,3.6405,3.6405,3.6434,3.6708,3.6739,3.6763,3.6553,3.6557,3.656,3.6705,0,3.6244,3.6355,3.6324,3.6435,3.6483,3.6424,3.648,3.6495,3.6487,3.6526,3.6518,3.6565,3.6506,3.6517,3.6562,3.6556,3.6634,3.6545,3.6599,3.6601,3.6592,3.6788,3.6822,3.6959,3.6723,3.6726,3.6729,0,3.6438,3.6465,3.658,3.6582,3.66,3.6652,3.6681,3.6721,3.6735,3.6726,3.6747,3.6712,3.6775,3.6702,3.6787,3.6727,3.6748,3.6748,3.6752,3.6753,3.6671,3.6791,3.7002,3.7021,3.6758,3.6756,3.6753,0,3.6585,3.6652,3.6727,3.6739,3.6744,3.6781,3.6785,3.6795,3.6818,3.6844,3.6858,3.6893,3.6911,3.6939,3.6913,3.6863,3.7001,3.6926,3.6993,3.6994,3.7023,3.7021,3.7237,3.7043,3.7042,3.7042,3.7042,0,3.6758,3.6829,3.6793,3.6839,3.6917,3.6882,3.6959,3.6957,3.6965,3.7009,3.6963,3.7005,3.6971,3.701,3.6991,3.7062,3.7072,3.7065,3.7059,3.7067,3.7068,3.7078,3.7066,3.7047,3.7046,3.7045,3.7044,0,3.6935,3.6914,3.6991,3.6989,3.699,3.7047,3.7044,3.7087,3.7075,3.7131,3.7142,3.7125,3.7168,3.7146,3.7192,3.7179,3.727,3.7253,3.7264,3.7258,3.7325,3.7317,3.7552,3.7579,3.7372,3.7374,3.7375,0,3.7044,3.7097,3.7099,3.7124,3.7131,3.7173,3.7195,3.7163,3.7188,3.7206,3.7245,3.7284,3.7313,3.7385,3.7376,3.741,3.7391,3.7471,3.7396,3.7401,3.7387,3.7383,3.7386,3.7485,3.7488,3.749,3.7491,0,3.724,3.7226,3.7259,3.7288,3.7315,3.7337,3.7355,3.7379,3.7346,3.7377,3.7419,3.7442,3.7487,3.7525,3.7554,3.7558,3.7518,3.7515,3.7532,3.7539,3.7542,3.7537,3.7301,3.7509,3.7508,3.7506,3.7505,3.7504,3.7383,3.7426,3.7433,3.747,3.748,3.7497,3.7535,3.7527,3.7561,3.7594,3.7573,3.7622,3.7632,3.7666,3.7675,3.7713,3.7681,3.7706,3.7712,3.7717,3.7724,3.7539,3.7719,3.7718,3.7718,3.7717,3.7717,0,3.7573,3.7573,3.7608,3.7633,3.7662,3.7622,3.7639,3.7666,3.7709,3.7722,3.775,3.7797,3.7833,3.7827,3.7859,3.789,3.7873,3.7899,3.7895,3.7896,3.7753,3.7733,3.7913,3.7913,3.7913,3.7912,3.7912,3.7912,3.7674,3.7742,3.7729,3.78,3.7801,3.7847,3.786,3.7874,3.7883,3.7937,3.7966,3.7961,3.7965,3.7997,3.8027,3.8024,3.8037,3.8069,3.8059,3.7926,3.7906,3.7888,3.7869,3.8073,3.8074,3.8198,3.8199,3.82]},{"header":{"parameterUnit":"m.s-1","parameterCategory":1,"la1":30.2991,"la2":30.254,"lo1":-89.0895,"lo2":-89.0444,"dy":0.0017,"dx":0.0017,"nx":28,"ny":28,"refTime":"2025-07-11T21:00:00:Z","depth":0,"parameterNumber":3,"parameterNumberName":"V-component_of_WINDS"},"data":[0,0,0,0,0,0,0,0,0,0,0,0,0,0,0,0,0,0,0,0,0,0,0,0,0,0,0,0,0,0,0,0,0,0,0,0,0,0,0,0,0,0,0,0,0,0,0,0,0,0,0,0,0,0,0,0,0,0,2.3331,2.3332,0,2.3374,2.3375,2.3375,2.3357,2.3356,2.3355,2.3354,2.3398,2.34,2.3402,0,0,0,0,0,0,0,0,0,0,0,0,0,2.3233,2.3234,2.3331,2.3332,2.3332,2.3374,2.3375,2.3375,2.3357,2.3356,2.3355,2.3353,2.3397,2.3399,2.3402,0,0,0,0,0,0,0,0,0,0,0,0,0,2.3275,2.3235,2.3331,2.3328,2.3329,2.3374,2.3375,2.3375,2.3357,2.3356,2.3354,2.3353,2.3396,2.3399,2.3402,2.3453,0,0,2.3412,2.3413,0,0,0,0,0,0,0,0,2.3273,2.3279,2.3328,2.3329,2.3329,2.3359,2.3356,2.3401,2.3358,2.3346,2.3354,2.3352,2.3386,2.339,2.3401,2.3455,2.3457,2.3412,2.3414,2.3416,2.3417,0,0,0,0,0,0,0,2.327,2.3277,2.3348,2.3329,2.3329,2.3324,2.3329,2.3364,2.3374,2.3347,2.3346,2.3351,2.3386,2.3398,2.3402,2.3457,2.3412,2.3415,2.3417,2.3418,2.3552,2.3554,0,0,0,0,0,0,2.3267,2.3275,2.3347,2.3349,2.3297,2.3327,2.3332,2.3351,2.3374,2.3376,2.3353,2.335,2.3393,2.3398,2.3404,2.3462,2.3416,2.3419,2.342,2.355,2.3552,2.3554,0,0,0,0,0,0,2.3265,2.3274,2.3345,2.3312,2.332,2.3331,2.3351,2.3352,2.3365,2.3378,2.338,2.3364,2.3392,2.3399,2.344,2.3464,2.342,2.3423,2.3549,2.3551,2.3553,2.3582,0,0,0,0,0,0,2.3262,2.3273,2.3293,2.3312,2.3322,2.3382,2.3353,2.3354,2.337,2.3368,2.3389,2.3391,2.3392,2.3435,2.3443,2.3467,2.3425,2.3546,2.355,2.3553,2.3579,2.3585,2.359,0,0,0,0,0,2.3259,2.33,2.3294,2.3303,2.3347,2.3383,2.3389,2.3389,2.3372,2.3392,2.34,2.339,2.346,2.344,2.3449,2.3474,2.3545,2.3549,2.3552,2.3576,2.3584,2.359,0,0,0,0,0,0,2.3284,2.3302,2.3296,2.3345,2.3362,2.338,2.3405,2.3398,2.342,2.3417,2.3417,2.3421,2.3463,2.3473,2.345,2.3523,2.35,2.3505,2.3515,2.3522,2.3528,2.3524,2.3428,0,0,0,0,0,2.3295,2.3322,2.3337,2.3379,2.3388,2.3395,2.341,2.3409,2.3427,2.3435,2.3446,2.3464,2.3489,2.3506,2.3531,2.358,2.3583,2.3602,2.3607,2.3612,2.3616,2.3641,2.3648,2.3566,2.3566,2.3566,0,0,2.3318,2.3332,2.3349,2.3384,2.3397,2.3425,2.3401,2.3432,2.3452,2.3439,2.3478,2.3487,2.3507,2.3551,2.3572,2.356,2.364,2.3617,2.362,2.3622,2.3645,2.3653,2.366,2.3569,2.3568,2.3568,0,0,2.3374,2.3388,2.3423,2.3436,2.3456,2.3461,2.3469,2.3487,2.3492,2.3531,2.3521,2.3545,2.359,2.3604,2.3617,2.3676,2.3667,2.3684,2.3713,2.3737,2.3744,2.3749,2.3768,2.3776,2.3689,2.3689,2.3689,0,2.34,2.3442,2.3442,2.3473,2.3487,2.3476,2.351,2.3524,2.3551,2.3561,2.3548,2.3603,2.3616,2.3662,2.3676,2.3688,2.3696,2.3681,2.3743,2.3748,2.3754,2.3772,2.3779,2.3691,2.369,2.369,2.369,0,2.3472,2.3501,2.3527,2.3552,2.357,2.3603,2.3606,2.3624,2.3621,2.3626,2.3665,2.3679,2.3706,2.3717,2.3715,2.3763,2.3755,2.3743,2.3719,2.3763,2.378,2.3787,2.3693,2.3693,2.3692,2.3692,0,0,2.3545,2.3569,2.3578,2.3589,2.361,2.3632,2.3663,2.3688,2.3703,2.3722,2.3747,2.3785,2.3773,2.3787,2.3786,2.3807,2.385,2.3792,2.3792,2.3801,2.3902,2.391,2.3918,2.3845,2.3846,2.3847,2.3899,0,2.3601,2.3656,2.3656,2.3707,2.3732,2.3721,2.3748,2.3763,2.3768,2.379,2.3796,2.3822,2.3805,2.3814,2.3834,2.3841,2.387,2.3837,2.3867,2.3868,2.3861,2.3927,2.3936,2.3985,2.3906,2.3907,2.3908,0,2.3675,2.3695,2.3747,2.3762,2.3773,2.3797,2.3819,2.3841,2.3857,2.3859,2.3875,2.387,2.3901,2.3877,2.3918,2.3896,2.3908,2.3913,2.3915,2.3917,2.389,2.3929,2.4,2.4007,2.3919,2.3918,2.3917,0,2.372,2.3761,2.3797,2.3807,2.3825,2.3842,2.3851,2.3866,2.388,2.39,2.3908,2.3931,2.3944,2.3961,2.3962,2.3945,2.4003,2.398,2.4004,2.4004,2.4016,2.4015,2.4089,2.4026,2.4026,2.4026,2.4026,0,2.3782,2.3814,2.3817,2.3839,2.3875,2.3874,2.3908,2.3915,2.3928,2.3951,2.3943,2.3964,2.3965,2.3986,2.3987,2.402,2.4026,2.4028,2.4027,2.4028,2.4027,2.4035,2.4031,2.4028,2.4028,2.4027,2.4027,0,2.3839,2.3842,2.3881,2.3895,2.3899,2.3924,2.3936,2.3956,2.396,2.3989,2.3996,2.4002,2.4026,2.4029,2.4058,2.4059,2.4098,2.4095,2.4092,2.4091,2.4115,2.4112,2.4195,2.4205,2.4137,2.4138,2.4138,0,2.3878,2.3902,2.3918,2.3932,2.3941,2.3965,2.3979,2.3979,2.3994,2.4013,2.4031,2.4055,2.4073,2.4113,2.412,2.4141,2.4138,2.4165,2.4141,2.414,2.4136,2.4134,2.4135,2.417,2.417,2.4171,2.4171,0,2.3945,2.3945,2.3966,2.3987,2.4004,2.4021,2.4036,2.4048,2.4049,2.4067,2.4091,2.4106,2.4135,2.4158,2.4178,2.4187,2.4179,2.4179,2.4185,2.4185,2.4182,2.4182,2.4103,2.4177,2.4176,2.4176,2.4176,2.4175,2.3993,2.4013,2.4027,2.4049,2.4061,2.4075,2.4094,2.41,2.4121,2.4144,2.4142,2.4169,2.4183,2.421,2.4219,2.424,2.4231,2.424,2.4243,2.4245,2.4246,2.418,2.4244,2.4244,2.4244,2.4243,2.4243,0,2.4058,2.4066,2.4087,2.4108,2.4126,2.4117,2.4133,2.4148,2.4172,2.4186,2.4204,2.4231,2.4253,2.4261,2.4282,2.4296,2.4293,2.4302,2.43,2.4302,2.4254,2.4246,2.4304,2.4304,2.4304,2.4304,2.4304,2.4304,2.4094,2.4127,2.4128,2.4166,2.4174,2.4199,2.4209,2.4222,2.4232,2.4263,2.4281,2.4286,2.4297,2.4318,2.4337,2.4339,2.4346,2.4356,2.4356,2.4311,2.4305,2.4299,2.4291,2.4358,2.4358,2.4401,2.4402,2.4402]}]]